Regional Weather Roundup
Issued by NWS State College, PA

Home | Current Version | Previous Version | Text Only | Print | Product List | Glossary Off
Versions: 1 2 3 4 5 6 7 8 9 10 11 12 13 14 15 16 17 18 19 20 21 22 23 24 25 26 27 28 29 30 31 32 33 34 35 36 37 38 39 40 41 42 43 44 45 46 47 48 49 50

000
ASUS41 KCTP 242310
RWRCTP

REGIONAL WEATHER ROUNDUP
NATIONAL WEATHER SERVICE STATE COLLEGE PA
700 PM EDT THU JUL 24 2014

Note: "fair" indicates few or no clouds below 12,000 feet with no
significant weather and/or obstructions to visibility.

* = STATION THAT DOES NOT REPORT PRECIPITATION /E.G. RAIN...SNOW...ETC/
    THUNDER OR FOG.

PAZ002>004-007>009-013>016-020>023-029>032-250000-
WESTERN PENNSYLVANIA

CITY           SKY/WX    TMP DP  RH WIND       PRES   REMARKS
ERIE           SUNNY     70  47  43 N5        30.03F
MEADVILLE      SUNNY     67  47  48 N6        30.04F
FRANKLIN*      SUNNY     66  48  52 NW5       30.04S
NEW CASTLE       N/A     70  52  52 N9        30.03S
BEAVER COUNTY  SUNNY     72  52  49 N13       30.01S
BUTLER*        SUNNY     72  52  49 N5        30.02R
PITTSBURGH INT MOSUNNY   75  51  43 NW14      29.99F
PITTSBURGH     MOSUNNY   73  51  46 N12G17    29.98S
INDIANA*       MOSUNNY   73  52  46 VRB6G13   30.03R
LATROBE        MOSUNNY   73  55  53 NW9       29.99R
WASHINGTON CO* SUNNY     72  52  49 N12G18    30.00S
$$

PAZ004>006-010>012-017>019-024>028-033>037-041-042-045-046-049>053-250000-
CENTRAL PENNSYLVANIA

CITY           SKY/WX    TMP DP  RH WIND       PRES   REMARKS
BRADFORD       CLOUDY    67  48  50 N13       30.03R
DUBOIS         PTSUNNY   71  49  45 NW10      30.00R
CLEARFIELD     MOSUNNY   72  50  45 N7        29.99R
JOHNSTOWN      MOSUNNY   69  50  50 NW10      30.00S
ALTOONA        CLOUDY    74  53  48 N8        29.98R
STATE COLLEGE  MOSUNNY   72  52  49 VRB3      29.97R
WILLIAMSPORT   MOSUNNY   74  49  41 N8        29.93R
SELINSGROVE    MOSUNNY   74  53  48 N8        29.93S
FT INDIANTOWN  PTSUNNY   74  53  48 N6        29.93R
CAPITAL CITY   PTSUNNY   75  50  41 N8        29.92R
HARRISBURG     PTSUNNY   76  51  41 N10       29.91R
YORK           PTSUNNY   75  55  49 N7        29.92R
$$

PAZ038>040-043-044-047-048-054-055-060>062-067>071-250000-
EASTERN PENNSYLVANIA

CITY           SKY/WX    TMP DP  RH WIND       PRES   REMARKS
SCRANTON       MOSUNNY   73  49  42 N13       29.94S
MOUNT POCONO   PTSUNNY   68  50  52 N10       29.95S
ALLENTOWN      PTSUNNY   76  52  43 N12       29.89R
QUAKERTOWN*    PTCLDY    75  57  53 CALM      29.90R
READING        CLOUDY    77  54  44 NW13      29.89R
LANCASTER      CLOUDY    75  55  49 N13       29.91R
COATESVILLE    CLOUDY    73  55  53 N6        29.91S
POTTSTOWN      PTSUNNY   75  54  47 N8        29.90R
BLUE BELL      MOSUNNY   77  55  47 CALM      29.87R
DOYLESTOWN     MOSUNNY   75  54  47 N6        29.87R
WILLOW GROVE   NOT AVBL
NORTH PHILA    SUNNY     79  51  37 N9        29.88R
PHILADELPHIA   CLOUDY    80  53  39 N13       29.86R
$$


USA.gov is the U.S. government's official web portal to all federal, state and local government web resources and services.